This is the latest recevied weather packets stored in our database for station/object EB1BWO-11. If no packets are shown the sender has not sent any weather packets the latest 10 day(s).
| Time | Temp. | Humidity | Pressure | Rain* | Wind** | Luminosity | Snow |
|---|---|---|---|---|---|---|---|
| 1777904791 | 16.11° C | 75% | 1017.8 hPa | - | - | - | - |
| 1777903891 | 15.56° C | 76% | 1017.9 hPa | - | - | - | - |
| 1777902991 | 15° C | 77% | 1018 hPa | - | - | - | - |
| 1777902091 | 15.56° C | 76% | 1017.9 hPa | - | - | - | - |
| 1777901190 | 15.56° C | 77% | 1017.9 hPa | - | - | - | - |
| 1777900290 | 15° C | 77% | 1018 hPa | - | - | - | - |
| 1777899390 | 15.56° C | 76% | 1017.9 hPa | - | - | - | - |
| 1777898490 | 16.11° C | 75% | 1017.9 hPa | - | - | - | - |
| 1777897590 | 16.67° C | 74% | 1017.8 hPa | - | - | - | - |
| 1777896690 | 16.11° C | 75% | 1018.1 hPa | - | - | - | - |
| 1777895790 | 15.56° C | 75% | 1018.2 hPa | - | - | - | - |
| 1777894889 | 15° C | 77% | 1018.2 hPa | - | - | - | - |
| 1777893989 | 14.44° C | 76% | 1018.2 hPa | - | - | - | - |
| 1777893089 | 16.67° C | 72% | 1018.1 hPa | - | - | - | - |
| 1777892189 | 20° C | 63% | 1018.1 hPa | - | - | - | - |
| 1777891289 | 18.89° C | 66% | 1018.2 hPa | - | - | - | - |
| 1777890389 | 15° C | 75% | 1018.2 hPa | - | - | - | - |
| 1777889489 | 16.11° C | 74% | 1018.3 hPa | - | - | - | - |
| 1777888589 | 17.78° C | 70% | 1018.1 hPa | - | - | - | - |
| 1777887688 | 14.44° C | 75% | 1018.2 hPa | - | - | - | - |
| 1777886788 | 13.33° C | 78% | 1018.3 hPa | - | - | - | - |
| 1777885888 | 13.33° C | 77% | 1018.2 hPa | - | - | - | - |
| 1777884988 | 14.44° C | 75% | 1018 hPa | - | - | - | - |
| 1777884088 | 15° C | 75% | 1017.9 hPa | - | - | - | - |
| 1777883188 | 15.56° C | 74% | 1017.8 hPa | - | - | - | - |
* Rain since midnight (hover to see other rain measurements)
** Current wind speed in m/s (hover to see current wind gust speed)